[[{"header":{"parameterUnit":"m.s-1","parameterCategory":1,"la1":30.2991,"la2":30.254,"lo1":-89.0895,"lo2":-89.0444,"dy":0.0017,"dx":0.0017,"nx":28,"ny":28,"refTime":"2025-11-14T03:00:00:Z","depth":0,"parameterNumber":2,"parameterNumberName":"U-component_of_WINDS"},"data":[0,0,0,0,0,0,0,0,0,0,0,0,0,0,0,0,0,0,0,0,0,0,0,0,0,0,0,0,0,0,0,0,0,0,0,0,0,0,0,0,0,0,0,0,0,0,0,0,0,0,0,0,0,0,0,0,0,0,-0.1287,-0.1286,0,-0.1265,-0.1265,-0.1264,-0.1258,-0.1258,-0.1258,-0.1258,-0.1235,-0.1234,-0.1234,0,0,0,0,0,0,0,0,0,0,0,0,0,-0.1322,-0.1322,-0.1287,-0.1286,-0.1286,-0.1265,-0.1264,-0.1264,-0.1257,-0.1258,-0.1258,-0.1258,-0.1235,-0.1234,-0.1233,0,0,0,0,0,0,0,0,0,0,0,0,0,-0.1304,-0.1321,-0.1287,-0.128,-0.1279,-0.1265,-0.1264,-0.1264,-0.1257,-0.1258,-0.1258,-0.1258,-0.1235,-0.1234,-0.1233,-0.1224,0,0,-0.123,-0.123,0,0,0,0,0,0,0,0,-0.1305,-0.1303,-0.1281,-0.1281,-0.128,-0.1264,-0.1269,-0.125,-0.1257,-0.1266,-0.1258,-0.1258,-0.1244,-0.1243,-0.1238,-0.1222,-0.1221,-0.123,-0.1229,-0.1229,-0.1229,0,0,0,0,0,0,0,-0.1307,-0.1304,-0.1278,-0.1281,-0.128,-0.1278,-0.1276,-0.1265,-0.1254,-0.1265,-0.1265,-0.1262,-0.1244,-0.1239,-0.1238,-0.1221,-0.123,-0.1229,-0.1228,-0.1228,-0.1196,-0.1196,0,0,0,0,0,0,-0.1309,-0.1305,-0.1279,-0.1277,-0.1293,-0.1277,-0.1275,-0.1269,-0.1255,-0.1253,-0.1262,-0.1262,-0.1241,-0.1239,-0.1237,-0.1224,-0.1229,-0.1228,-0.1227,-0.1196,-0.1196,-0.1196,0,0,0,0,0,0,-0.131,-0.1307,-0.128,-0.1291,-0.1287,-0.1277,-0.127,-0.1268,-0.1264,-0.1252,-0.125,-0.1259,-0.1241,-0.1238,-0.1227,-0.1223,-0.1227,-0.1226,-0.1197,-0.1196,-0.1196,-0.1199,0,0,0,0,0,0,-0.1311,-0.1307,-0.1303,-0.1291,-0.1287,-0.127,-0.127,-0.1268,-0.1262,-0.1261,-0.1249,-0.1247,-0.1241,-0.1228,-0.1226,-0.1222,-0.1226,-0.1197,-0.1196,-0.1196,-0.1199,-0.1199,-0.1199,0,0,0,0,0,-0.1312,-0.1305,-0.1303,-0.13,-0.1282,-0.127,-0.1268,-0.1261,-0.1262,-0.1258,-0.125,-0.1247,-0.1224,-0.1227,-0.1224,-0.122,-0.1197,-0.1197,-0.1196,-0.1199,-0.1199,-0.1199,0,0,0,0,0,0,-0.1317,-0.1303,-0.1301,-0.129,-0.1281,-0.1269,-0.1264,-0.1261,-0.1252,-0.1252,-0.1243,-0.1241,-0.123,-0.1224,-0.1228,-0.121,-0.121,-0.1209,-0.1214,-0.1214,-0.1213,-0.1215,-0.1225,0,0,0,0,0,-0.1317,-0.1308,-0.1297,-0.1288,-0.1284,-0.1274,-0.1269,-0.1265,-0.1255,-0.1252,-0.1243,-0.1234,-0.1225,-0.1219,-0.121,-0.1198,-0.1195,-0.1194,-0.1194,-0.1193,-0.1193,-0.1186,-0.1185,-0.1194,-0.1194,-0.1194,0,0,-0.1316,-0.1308,-0.1303,-0.1289,-0.1281,-0.1273,-0.1271,-0.1262,-0.1256,-0.125,-0.1239,-0.1233,-0.1222,-0.1211,-0.1205,-0.1205,-0.1189,-0.1193,-0.1193,-0.1192,-0.1185,-0.1185,-0.1184,-0.1194,-0.1194,-0.1194,0,0,-0.131,-0.1303,-0.1295,-0.1288,-0.1277,-0.1271,-0.1269,-0.1257,-0.1253,-0.1242,-0.1237,-0.1229,-0.1213,-0.1206,-0.12,-0.1192,-0.1189,-0.1189,-0.1187,-0.1181,-0.118,-0.118,-0.1176,-0.1175,-0.1188,-0.1188,-0.1188,0,-0.1311,-0.1298,-0.1291,-0.1282,-0.1276,-0.1271,-0.1262,-0.1256,-0.1242,-0.1238,-0.1238,-0.1218,-0.1211,-0.1198,-0.1196,-0.1191,-0.1188,-0.119,-0.1181,-0.118,-0.1179,-0.1176,-0.1175,-0.1188,-0.1188,-0.1188,-0.1188,0,-0.1299,-0.129,-0.1285,-0.1272,-0.1265,-0.1257,-0.1248,-0.1242,-0.1239,-0.1233,-0.1221,-0.1212,-0.1201,-0.1197,-0.1193,-0.1183,-0.1184,-0.1183,-0.1183,-0.1179,-0.1176,-0.1174,-0.1188,-0.1188,-0.1188,-0.1188,0,0,-0.1296,-0.128,-0.1278,-0.1272,-0.126,-0.1252,-0.1243,-0.1233,-0.1228,-0.1219,-0.1211,-0.1198,-0.1197,-0.119,-0.1185,-0.118,-0.1173,-0.1179,-0.1179,-0.1178,-0.1162,-0.1162,-0.1161,-0.1172,-0.1171,-0.1171,-0.1163,0,-0.1288,-0.1272,-0.1266,-0.1253,-0.1244,-0.1239,-0.1231,-0.1223,-0.1217,-0.1209,-0.1202,-0.1193,-0.1192,-0.1188,-0.1183,-0.1175,-0.117,-0.1176,-0.1164,-0.1164,-0.1167,-0.116,-0.116,-0.1153,-0.1161,-0.1161,-0.1161,0,-0.1278,-0.1269,-0.1255,-0.1244,-0.124,-0.1233,-0.1222,-0.1215,-0.1205,-0.1201,-0.1194,-0.1189,-0.118,-0.1181,-0.1168,-0.1172,-0.1166,-0.1162,-0.1162,-0.116,-0.1162,-0.1158,-0.115,-0.1149,-0.1159,-0.1159,-0.1159,0,-0.1276,-0.1261,-0.1251,-0.1246,-0.1232,-0.1228,-0.1222,-0.1212,-0.1206,-0.1197,-0.1193,-0.1183,-0.1177,-0.1169,-0.1162,-0.1164,-0.1149,-0.115,-0.1146,-0.1146,-0.1142,-0.1143,-0.1134,-0.114,-0.114,-0.114,-0.114,0,-0.1269,-0.126,-0.125,-0.1243,-0.1234,-0.1227,-0.1217,-0.1211,-0.1203,-0.1195,-0.119,-0.1183,-0.1174,-0.1166,-0.116,-0.1149,-0.1147,-0.1143,-0.1142,-0.1144,-0.1144,-0.114,-0.114,-0.1139,-0.1139,-0.1139,-0.1139,0,-0.1266,-0.1258,-0.1247,-0.1235,-0.1232,-0.1225,-0.1215,-0.1209,-0.1203,-0.1193,-0.119,-0.1181,-0.117,-0.1163,-0.1149,-0.1146,-0.1135,-0.1133,-0.1138,-0.1137,-0.1133,-0.1133,-0.1121,-0.1119,-0.1126,-0.1126,-0.1126,0,-0.1261,-0.1255,-0.1242,-0.1237,-0.1231,-0.1222,-0.1216,-0.1209,-0.1202,-0.1191,-0.1186,-0.1175,-0.1167,-0.1151,-0.1142,-0.1132,-0.113,-0.1127,-0.1129,-0.1131,-0.113,-0.113,-0.113,-0.1126,-0.1126,-0.1126,-0.1126,0,-0.1254,-0.1251,-0.1242,-0.1232,-0.1225,-0.1216,-0.1208,-0.1204,-0.1195,-0.1188,-0.1178,-0.1171,-0.1157,-0.1147,-0.1136,-0.113,-0.1126,-0.1126,-0.1124,-0.1126,-0.1128,-0.1127,-0.1137,-0.1126,-0.1126,-0.1126,-0.1126,-0.1126,-0.125,-0.1244,-0.1234,-0.1225,-0.1218,-0.121,-0.1203,-0.1196,-0.1188,-0.1176,-0.1172,-0.1162,-0.1152,-0.1137,-0.1131,-0.1122,-0.1122,-0.112,-0.1119,-0.1119,-0.1119,-0.113,-0.112,-0.112,-0.112,-0.112,-0.112,0,-0.1243,-0.1236,-0.1227,-0.1216,-0.1208,-0.1206,-0.1196,-0.119,-0.1181,-0.1172,-0.1164,-0.1152,-0.1142,-0.1133,-0.1122,-0.1117,-0.1115,-0.1114,-0.1115,-0.1113,-0.1119,-0.1122,-0.1116,-0.1116,-0.1116,-0.1116,-0.1116,-0.1116,-0.1238,-0.1227,-0.1223,-0.1209,-0.1202,-0.1192,-0.1187,-0.1179,-0.1172,-0.1159,-0.1151,-0.1145,-0.1136,-0.1125,-0.1116,-0.1113,-0.1109,-0.1109,-0.1106,-0.1112,-0.1113,-0.1113,-0.1115,-0.1108,-0.1108,-0.1101,-0.1101,-0.1101]},{"header":{"parameterUnit":"m.s-1","parameterCategory":1,"la1":30.2991,"la2":30.254,"lo1":-89.0895,"lo2":-89.0444,"dy":0.0017,"dx":0.0017,"nx":28,"ny":28,"refTime":"2025-11-14T03:00:00:Z","depth":0,"parameterNumber":3,"parameterNumberName":"V-component_of_WINDS"},"data":[0,0,0,0,0,0,0,0,0,0,0,0,0,0,0,0,0,0,0,0,0,0,0,0,0,0,0,0,0,0,0,0,0,0,0,0,0,0,0,0,0,0,0,0,0,0,0,0,0,0,0,0,0,0,0,0,0,0,0.8617,0.8617,0,0.8633,0.8634,0.8634,0.8633,0.8632,0.8632,0.8632,0.8647,0.8648,0.8649,0,0,0,0,0,0,0,0,0,0,0,0,0,0.8582,0.8583,0.8617,0.8617,0.8617,0.8633,0.8634,0.8634,0.8633,0.8632,0.8632,0.8632,0.8647,0.8648,0.8649,0,0,0,0,0,0,0,0,0,0,0,0,0,0.8598,0.8583,0.8617,0.8618,0.8619,0.8633,0.8634,0.8634,0.8633,0.8632,0.8632,0.8632,0.8647,0.8648,0.8649,0.8662,0,0,0.8652,0.8652,0,0,0,0,0,0,0,0,0.8597,0.8599,0.8618,0.8618,0.8619,0.8631,0.8627,0.8643,0.8633,0.8627,0.8632,0.8631,0.8642,0.8643,0.8647,0.8663,0.8664,0.8652,0.8653,0.8653,0.8653,0,0,0,0,0,0,0,0.8596,0.8599,0.8623,0.8618,0.8619,0.8618,0.862,0.863,0.8636,0.8628,0.8628,0.863,0.8642,0.8646,0.8648,0.8664,0.8652,0.8653,0.8653,0.8654,0.8693,0.8693,0,0,0,0,0,0,0.8595,0.8598,0.8623,0.8624,0.8607,0.8619,0.8621,0.8627,0.8636,0.8637,0.863,0.863,0.8645,0.8647,0.8648,0.8666,0.8653,0.8654,0.8654,0.8693,0.8693,0.8694,0,0,0,0,0,0,0.8594,0.8597,0.8622,0.8611,0.8614,0.862,0.8627,0.8628,0.8632,0.8638,0.8639,0.8633,0.8645,0.8647,0.8659,0.8666,0.8654,0.8655,0.8692,0.8693,0.8693,0.87,0,0,0,0,0,0,0.8593,0.8597,0.8602,0.8611,0.8614,0.8633,0.8627,0.8628,0.8634,0.8633,0.8642,0.8642,0.8645,0.8658,0.866,0.8667,0.8656,0.8691,0.8692,0.8693,0.8699,0.8701,0.8702,0,0,0,0,0,0.8592,0.8603,0.8602,0.8605,0.8621,0.8633,0.8635,0.8638,0.8634,0.864,0.8644,0.8642,0.8665,0.8659,0.8662,0.8669,0.8691,0.8692,0.8693,0.8699,0.8701,0.8702,0,0,0,0,0,0,0.8593,0.8604,0.8604,0.8617,0.8625,0.8633,0.864,0.864,0.8648,0.8647,0.8649,0.8651,0.8664,0.8668,0.8661,0.8683,0.8677,0.8679,0.8681,0.8683,0.8684,0.8683,0.8657,0,0,0,0,0,0.8596,0.8605,0.8613,0.8625,0.8628,0.8634,0.8639,0.8641,0.8648,0.8651,0.8656,0.8663,0.8671,0.8677,0.8685,0.87,0.8702,0.8706,0.8708,0.8709,0.871,0.8719,0.8722,0.8697,0.8697,0.8697,0,0,0.86,0.8607,0.8612,0.8625,0.8631,0.8641,0.8636,0.8646,0.8653,0.8652,0.8665,0.8669,0.8676,0.869,0.8696,0.8694,0.8718,0.871,0.8711,0.8712,0.8721,0.8723,0.8725,0.8698,0.8698,0.8697,0,0,0.8613,0.8618,0.8629,0.8636,0.8645,0.8648,0.8651,0.866,0.8663,0.8675,0.8675,0.8683,0.8698,0.8704,0.8709,0.8726,0.8725,0.8728,0.8736,0.8745,0.8747,0.8749,0.8755,0.8758,0.8729,0.8729,0.8729,0,0.8617,0.8632,0.8635,0.8646,0.8652,0.8652,0.8663,0.8669,0.868,0.8684,0.8681,0.87,0.8705,0.8721,0.8725,0.8729,0.8732,0.8727,0.8746,0.8748,0.875,0.8756,0.8759,0.873,0.873,0.873,0.873,0,0.8636,0.8647,0.8655,0.8667,0.8673,0.8684,0.8689,0.8696,0.8697,0.8701,0.8714,0.8721,0.8731,0.8734,0.8735,0.8751,0.8749,0.8746,0.874,0.8753,0.8759,0.8761,0.8731,0.873,0.873,0.873,0,0,0.865,0.8665,0.8668,0.8674,0.8685,0.8693,0.8704,0.8715,0.8721,0.8728,0.8738,0.8751,0.8749,0.8755,0.8756,0.8764,0.8778,0.876,0.876,0.8764,0.8796,0.8799,0.8802,0.8777,0.8777,0.8778,0.8796,0,0.8665,0.8686,0.8689,0.8707,0.8717,0.8718,0.8728,0.8735,0.874,0.8749,0.8753,0.8763,0.8758,0.8762,0.877,0.8774,0.8784,0.8773,0.8786,0.8787,0.8785,0.8805,0.8808,0.8825,0.8798,0.8799,0.8799,0,0.8685,0.8695,0.8714,0.8724,0.8729,0.8738,0.8749,0.8757,0.8766,0.8768,0.8775,0.8776,0.8788,0.8781,0.8798,0.879,0.8796,0.8799,0.88,0.8802,0.8794,0.8808,0.883,0.8833,0.8803,0.8802,0.8802,0,0.8695,0.8712,0.8726,0.8731,0.8744,0.875,0.8755,0.8764,0.8771,0.878,0.8784,0.8795,0.88,0.8808,0.8812,0.8806,0.8828,0.8822,0.8831,0.8831,0.8836,0.8836,0.886,0.8838,0.8838,0.8838,0.8838,0,0.8711,0.8723,0.8731,0.874,0.8754,0.8758,0.8771,0.8776,0.8784,0.8794,0.8794,0.8803,0.8807,0.8817,0.882,0.8834,0.8836,0.8838,0.8839,0.8839,0.8839,0.8843,0.8842,0.8839,0.8839,0.8839,0.8839,0,0.8724,0.873,0.8746,0.8757,0.876,0.8769,0.8779,0.8787,0.8792,0.8804,0.8807,0.8814,0.8826,0.883,0.8844,0.8846,0.8862,0.8861,0.886,0.886,0.887,0.8869,0.8898,0.8903,0.8877,0.8877,0.8877,0,0.8735,0.8744,0.8757,0.8764,0.877,0.8781,0.8788,0.8793,0.88,0.8812,0.8819,0.8831,0.8841,0.8859,0.8865,0.8876,0.8876,0.8885,0.8878,0.8878,0.8877,0.8877,0.8879,0.8887,0.8887,0.8888,0.8888,0,0.8753,0.8756,0.8767,0.8779,0.8788,0.8798,0.8807,0.8812,0.8818,0.8827,0.8839,0.8847,0.8862,0.8874,0.8885,0.889,0.889,0.889,0.8893,0.8893,0.8892,0.8894,0.8865,0.889,0.8889,0.8889,0.8889,0.8889,0.8766,0.8775,0.8786,0.8798,0.8806,0.8815,0.8824,0.883,0.8841,0.8854,0.8856,0.8869,0.8879,0.8894,0.89,0.8911,0.8908,0.8912,0.8913,0.8915,0.8916,0.889,0.8913,0.8913,0.8913,0.8913,0.8912,0,0.8785,0.8792,0.8804,0.8818,0.8828,0.8827,0.8838,0.8846,0.8858,0.8868,0.8878,0.8893,0.8904,0.8912,0.8924,0.8931,0.8931,0.8934,0.8934,0.8936,0.8917,0.8914,0.8934,0.8934,0.8934,0.8934,0.8934,0.8934,0.8796,0.8812,0.8817,0.8836,0.8843,0.8857,0.8864,0.8872,0.888,0.8897,0.8907,0.8912,0.8921,0.8934,0.8945,0.8946,0.8951,0.8954,0.8956,0.8939,0.8937,0.8935,0.8932,0.8955,0.8955,0.8974,0.8974,0.8974]}]]